[[{"header":{"parameterUnit":"m.s-1","parameterCategory":1,"la1":30.2991,"la2":30.254,"lo1":-89.0895,"lo2":-89.0444,"dy":0.0017,"dx":0.0017,"nx":28,"ny":28,"refTime":"2024-07-31T21:00:00:Z","depth":0,"parameterNumber":2,"parameterNumberName":"U-component_of_WINDS"},"data":[0,0,0,0,0,0,0,0,0,0,0,0,0,0,0,0,0,0,0,0,0,0,0,0,0,0,0,0,0,0,0,0,0,0,0,0,0,0,0,0,0,0,0,0,0,0,0,0,0,0,0,0,0,0,0,0,0,0,3.2027,3.2028,0,3.214,3.2142,3.2143,3.2115,3.2112,3.211,3.2108,3.2226,3.2231,3.2236,0,0,0,0,0,0,0,0,0,0,0,0,0,3.1785,3.179,3.2026,3.2028,3.2029,3.214,3.2142,3.2143,3.2115,3.2112,3.211,3.2107,3.2224,3.223,3.2237,0,0,0,0,0,0,0,0,0,0,0,0,0,3.1894,3.1792,3.2026,3.2029,3.203,3.214,3.2142,3.2144,3.2116,3.2112,3.2109,3.2106,3.2222,3.223,3.2237,3.2352,0,0,3.2261,3.2265,0,0,0,0,0,0,0,0,3.1888,3.1903,3.2027,3.2029,3.203,3.211,3.21,3.2214,3.2116,3.2083,3.2108,3.2104,3.219,3.22,3.2229,3.2358,3.2363,3.2262,3.2267,3.227,3.2272,0,0,0,0,0,0,0,3.188,3.1898,3.2072,3.2029,3.2031,3.2024,3.2036,3.2121,3.2154,3.2086,3.2084,3.2098,3.219,3.2222,3.2232,3.2365,3.2262,3.2269,3.2273,3.2277,3.2592,3.2595,0,0,0,0,0,0,3.1871,3.1892,3.2068,3.2075,3.1949,3.2031,3.2044,3.2088,3.2153,3.216,3.2101,3.2096,3.221,3.2222,3.2236,3.2373,3.227,3.2277,3.2282,3.2588,3.2593,3.2597,0,0,0,0,0,0,3.1866,3.1887,3.2063,3.1983,3.2005,3.2039,3.2088,3.2092,3.2123,3.2164,3.217,3.2126,3.2208,3.2225,3.2323,3.2377,3.2281,3.2288,3.2584,3.259,3.2595,3.265,0,0,0,0,0,0,3.1859,3.1886,3.1929,3.1984,3.2009,3.2149,3.2091,3.2096,3.2136,3.2131,3.219,3.2196,3.2206,3.2312,3.2331,3.2386,3.2294,3.2579,3.2586,3.2593,3.2643,3.2657,3.2668,0,0,0,0,0,3.1851,3.1941,3.1932,3.1953,3.2065,3.2152,3.2166,3.2176,3.2141,3.2185,3.2211,3.2194,3.2368,3.2322,3.2343,3.2402,3.2576,3.2584,3.2592,3.2638,3.2654,3.2668,0,0,0,0,0,0,3.1893,3.1948,3.1939,3.2049,3.2096,3.2147,3.2203,3.2193,3.2251,3.2244,3.2254,3.2267,3.2368,3.2395,3.2342,3.2515,3.2467,3.248,3.2494,3.251,3.2522,3.2513,3.23,0,0,0,0,0,3.1914,3.1981,3.2026,3.2119,3.2143,3.2169,3.2208,3.2211,3.226,3.228,3.2313,3.2362,3.2427,3.247,3.2533,3.2647,3.2659,3.2698,3.271,3.272,3.2731,3.2792,3.281,3.2624,3.2624,3.2624,0,0,3.1961,3.1999,3.2041,3.2128,3.2165,3.2233,3.2186,3.226,3.2311,3.2291,3.2386,3.2412,3.2467,3.2574,3.2622,3.2599,3.2785,3.2731,3.2738,3.2744,3.2803,3.282,3.2836,3.263,3.2629,3.2628,0,0,3.2079,3.2116,3.2196,3.2234,3.229,3.2307,3.2326,3.2379,3.2395,3.249,3.2476,3.2537,3.265,3.2689,3.2724,3.2856,3.2842,3.2877,3.294,3.3,3.3015,3.3028,3.3074,3.309,3.2887,3.2888,3.2888,0,3.213,3.2231,3.224,3.2315,3.2353,3.2338,3.242,3.2456,3.253,3.2557,3.253,3.267,3.2706,3.2821,3.2853,3.2882,3.2904,3.287,3.3012,3.3025,3.3037,3.3081,3.3099,3.2891,3.2891,3.289,3.289,0,3.229,3.2361,3.242,3.249,3.2536,3.2614,3.2634,3.2679,3.2678,3.2697,3.2794,3.2836,3.2907,3.2934,3.2935,3.305,3.3033,3.3009,3.296,3.3058,3.31,3.3117,3.2897,3.2895,3.2894,3.2893,0,0,3.2438,3.2512,3.2533,3.2564,3.2624,3.2679,3.2757,3.2825,3.2863,3.2914,3.2979,3.3074,3.3052,3.3091,3.3096,3.3148,3.3249,3.3118,3.3119,3.314,3.3377,3.3393,3.3413,3.3241,3.3244,3.3247,3.3372,0,3.2561,3.2697,3.2706,3.2828,3.2893,3.288,3.2947,3.2991,3.3011,3.3069,3.3092,3.3159,3.3125,3.3149,3.32,3.3226,3.3297,3.3217,3.33,3.3303,3.3286,3.3435,3.3453,3.3569,3.3388,3.3391,3.3393,0,3.2723,3.2778,3.2907,3.2957,3.2984,3.3044,3.3107,3.3163,3.3212,3.3223,3.3267,3.3264,3.3343,3.3292,3.3401,3.3347,3.3381,3.3399,3.3404,3.3411,3.3353,3.3445,3.3606,3.3623,3.3419,3.3417,3.3415,0,3.2816,3.2923,3.3013,3.3041,3.3102,3.3144,3.3171,3.3218,3.3258,3.3313,3.3338,3.3402,3.3437,3.3486,3.35,3.3462,3.3609,3.3559,3.3619,3.3619,3.365,3.3648,3.3818,3.3674,3.3674,3.3674,3.3673,0,3.2952,3.3031,3.3056,3.3111,3.3199,3.3209,3.3296,3.3321,3.3362,3.3422,3.3415,3.3471,3.3487,3.3546,3.3558,3.3645,3.3662,3.3672,3.3674,3.3672,3.3671,3.3694,3.3686,3.3678,3.3677,3.3677,3.3676,0,3.3071,3.3091,3.3188,3.3238,3.3252,3.3314,3.3356,3.341,3.3429,3.3505,3.3523,3.3553,3.3622,3.3641,3.3725,3.3733,3.3835,3.3831,3.3818,3.3818,3.3876,3.387,3.4067,3.4093,3.3934,3.3935,3.3936,0,3.3156,3.3216,3.3271,3.3311,3.334,3.3403,3.3444,3.3456,3.3498,3.3558,3.3604,3.3673,3.3728,3.3839,3.3868,3.3932,3.3928,3.3992,3.3937,3.3933,3.3927,3.3923,3.3928,3.4002,3.4004,3.4005,3.4006,0,3.3304,3.331,3.3369,3.343,3.3478,3.3528,3.3575,3.3608,3.3627,3.3675,3.3745,3.3788,3.3872,3.394,3.4004,3.4032,3.4022,3.4024,3.4041,3.4039,3.4028,3.4033,3.3845,3.4019,3.4018,3.4017,3.4016,3.4016,3.3407,3.346,3.3506,3.3571,3.3608,3.3652,3.3704,3.3729,3.3788,3.3857,3.3861,3.3937,3.3984,3.4069,3.4101,3.416,3.4141,3.4166,3.4172,3.4178,3.4182,3.402,3.4172,3.4172,3.4171,3.4171,3.4171,0,3.3554,3.3583,3.3642,3.3708,3.3759,3.3745,3.3797,3.384,3.3907,3.3952,3.4006,3.4086,3.4151,3.4185,3.425,3.4291,3.4288,3.4307,3.4304,3.431,3.4196,3.4174,3.4308,3.4308,3.4308,3.4308,3.4308,3.4308,3.3636,3.3723,3.3735,3.384,3.3869,3.3943,3.3973,3.4013,3.4049,3.4139,3.4192,3.4214,3.4254,3.4322,3.4381,3.4389,3.4413,3.4434,3.444,3.4333,3.4318,3.4305,3.4284,3.4439,3.444,3.4549,3.455,3.455]},{"header":{"parameterUnit":"m.s-1","parameterCategory":1,"la1":30.2991,"la2":30.254,"lo1":-89.0895,"lo2":-89.0444,"dy":0.0017,"dx":0.0017,"nx":28,"ny":28,"refTime":"2024-07-31T21:00:00:Z","depth":0,"parameterNumber":3,"parameterNumberName":"V-component_of_WINDS"},"data":[0,0,0,0,0,0,0,0,0,0,0,0,0,0,0,0,0,0,0,0,0,0,0,0,0,0,0,0,0,0,0,0,0,0,0,0,0,0,0,0,0,0,0,0,0,0,0,0,0,0,0,0,0,0,0,0,0,0,-0.0562,-0.0563,0,-0.0568,-0.0568,-0.0568,-0.0581,-0.0581,-0.0581,-0.0581,-0.0587,-0.0587,-0.0587,0,0,0,0,0,0,0,0,0,0,0,0,0,-0.0562,-0.0562,-0.0562,-0.0563,-0.0563,-0.0568,-0.0568,-0.0568,-0.0581,-0.0581,-0.0581,-0.0581,-0.0587,-0.0587,-0.0587,0,0,0,0,0,0,0,0,0,0,0,0,0,-0.0565,-0.0562,-0.0562,-0.0569,-0.057,-0.0568,-0.0568,-0.0568,-0.058,-0.0581,-0.0581,-0.0582,-0.0587,-0.0587,-0.0587,-0.0578,0,0,-0.0586,-0.0586,0,0,0,0,0,0,0,0,-0.0565,-0.0565,-0.0568,-0.0569,-0.057,-0.0574,-0.057,-0.0572,-0.058,-0.0576,-0.0581,-0.0582,-0.0582,-0.0583,-0.0583,-0.0579,-0.0579,-0.0586,-0.0586,-0.0586,-0.0586,0,0,0,0,0,0,0,-0.0564,-0.0564,-0.0565,-0.0568,-0.0569,-0.0572,-0.0573,-0.0571,-0.0577,-0.0577,-0.0578,-0.0578,-0.0583,-0.0583,-0.0583,-0.0579,-0.0586,-0.0586,-0.0586,-0.0586,-0.0569,-0.0568,0,0,0,0,0,0,-0.0563,-0.0564,-0.0565,-0.0565,-0.0568,-0.0572,-0.0573,-0.0572,-0.0577,-0.0578,-0.0578,-0.0579,-0.0583,-0.0583,-0.0583,-0.0574,-0.0586,-0.0586,-0.0586,-0.0569,-0.0569,-0.0568,0,0,0,0,0,0,-0.0563,-0.0563,-0.0564,-0.0565,-0.0565,-0.0572,-0.0571,-0.0572,-0.0572,-0.0578,-0.0579,-0.0577,-0.0583,-0.0583,-0.058,-0.0574,-0.0586,-0.0586,-0.057,-0.0569,-0.0568,-0.0555,0,0,0,0,0,0,-0.0563,-0.0563,-0.056,-0.0565,-0.0565,-0.056,-0.0571,-0.0572,-0.0572,-0.0573,-0.0577,-0.0578,-0.0584,-0.058,-0.0579,-0.0574,-0.0586,-0.057,-0.0569,-0.0569,-0.0556,-0.0554,-0.0553,0,0,0,0,0,-0.0563,-0.0556,-0.056,-0.0559,-0.0561,-0.056,-0.056,-0.0566,-0.0572,-0.0568,-0.0572,-0.0578,-0.0575,-0.0579,-0.0579,-0.0574,-0.057,-0.057,-0.0569,-0.0557,-0.0555,-0.0553,0,0,0,0,0,0,-0.055,-0.0556,-0.0561,-0.0555,-0.0557,-0.0562,-0.0558,-0.0564,-0.0564,-0.0565,-0.0573,-0.0574,-0.0569,-0.0571,-0.0576,-0.0566,-0.0574,-0.0573,-0.0565,-0.0563,-0.0561,-0.056,-0.0586,0,0,0,0,0,-0.0546,-0.0544,-0.0551,-0.0545,-0.0545,-0.0552,-0.0551,-0.0556,-0.0558,-0.0559,-0.0563,-0.0565,-0.0564,-0.0564,-0.0564,-0.0557,-0.0558,-0.0553,-0.0551,-0.055,-0.0549,-0.0546,-0.0544,-0.0565,-0.0565,-0.0566,0,0,-0.0538,-0.0542,-0.054,-0.0542,-0.0544,-0.0542,-0.0552,-0.055,-0.0549,-0.0559,-0.0555,-0.0558,-0.0561,-0.0556,-0.0554,-0.0557,-0.0543,-0.0549,-0.0548,-0.0547,-0.0545,-0.0543,-0.0541,-0.0565,-0.0565,-0.0565,0,0,-0.0524,-0.0526,-0.0522,-0.0524,-0.0527,-0.0531,-0.053,-0.0535,-0.0537,-0.0534,-0.0542,-0.0541,-0.0539,-0.0541,-0.0542,-0.0529,-0.0534,-0.0529,-0.0519,-0.0516,-0.0514,-0.0513,-0.0508,-0.0506,-0.0528,-0.0528,-0.0528,0,-0.0514,-0.0511,-0.0519,-0.0516,-0.0516,-0.0526,-0.0521,-0.0523,-0.0526,-0.0526,-0.0531,-0.053,-0.0533,-0.0528,-0.0525,-0.0525,-0.0524,-0.0528,-0.0514,-0.0513,-0.0511,-0.0507,-0.0505,-0.0527,-0.0527,-0.0527,-0.0527,0,-0.0499,-0.0497,-0.0493,-0.0496,-0.0496,-0.0493,-0.05,-0.0499,-0.0504,-0.0508,-0.0505,-0.0508,-0.0509,-0.0509,-0.0513,-0.0505,-0.0507,-0.0513,-0.052,-0.0508,-0.0504,-0.0503,-0.0526,-0.0526,-0.0526,-0.0527,0,0,-0.0475,-0.0482,-0.0481,-0.0482,-0.0487,-0.0486,-0.0483,-0.0484,-0.0483,-0.0485,-0.0483,-0.0483,-0.0488,-0.0489,-0.0494,-0.0491,-0.0481,-0.0497,-0.0497,-0.0494,-0.0472,-0.0467,-0.0465,-0.0485,-0.0484,-0.0484,-0.0471,0,-0.0461,-0.0456,-0.0463,-0.0457,-0.0455,-0.0465,-0.0462,-0.0465,-0.0469,-0.0469,-0.0473,-0.0472,-0.048,-0.048,-0.0478,-0.0482,-0.0476,-0.0483,-0.0483,-0.0482,-0.0481,-0.0463,-0.0458,-0.0445,-0.047,-0.047,-0.0469,0,-0.0443,-0.0445,-0.0438,-0.0444,-0.0444,-0.0441,-0.0443,-0.0443,-0.0446,-0.0449,-0.0451,-0.0457,-0.0455,-0.0463,-0.046,-0.0465,-0.0465,-0.0467,-0.0467,-0.0466,-0.0475,-0.0462,-0.0442,-0.0439,-0.0467,-0.0467,-0.0467,0,-0.0426,-0.0426,-0.0423,-0.0424,-0.043,-0.0428,-0.0431,-0.0435,-0.0435,-0.0437,-0.0438,-0.0439,-0.044,-0.0441,-0.0447,-0.0453,-0.0444,-0.0452,-0.0446,-0.0446,-0.0443,-0.0443,-0.0423,-0.0444,-0.0444,-0.0444,-0.0444,0,-0.0409,-0.0405,-0.0415,-0.0413,-0.0408,-0.0417,-0.0412,-0.0416,-0.0419,-0.0418,-0.0427,-0.0425,-0.0434,-0.0434,-0.0439,-0.0436,-0.0437,-0.0439,-0.044,-0.0438,-0.0437,-0.0438,-0.0438,-0.0444,-0.0444,-0.0444,-0.0444,0,-0.0388,-0.0395,-0.0392,-0.0399,-0.04,-0.0397,-0.0403,-0.0401,-0.0406,-0.0404,-0.0404,-0.0412,-0.0412,-0.0419,-0.042,-0.0424,-0.0419,-0.0422,-0.0417,-0.0418,-0.0412,-0.0412,-0.039,-0.0387,-0.0411,-0.0411,-0.0411,0,-0.0377,-0.0374,-0.0381,-0.038,-0.0383,-0.0382,-0.0383,-0.0391,-0.0391,-0.0396,-0.0393,-0.0395,-0.0396,-0.0396,-0.0401,-0.0403,-0.0406,-0.0398,-0.0406,-0.0404,-0.0405,-0.0405,-0.0405,-0.0396,-0.0396,-0.0395,-0.0395,0,-0.0356,-0.0359,-0.036,-0.0362,-0.0362,-0.0364,-0.0367,-0.0366,-0.0375,-0.0375,-0.0376,-0.0377,-0.0379,-0.0379,-0.0382,-0.0385,-0.0392,-0.0393,-0.0391,-0.0389,-0.0386,-0.0387,-0.0412,-0.0393,-0.0393,-0.0393,-0.0394,-0.0394,-0.0339,-0.0337,-0.0341,-0.0342,-0.0345,-0.0347,-0.0346,-0.0351,-0.0351,-0.0353,-0.0359,-0.0358,-0.0363,-0.0367,-0.0369,-0.0369,-0.0373,-0.0371,-0.0371,-0.037,-0.0369,-0.0387,-0.037,-0.037,-0.037,-0.037,-0.037,0,-0.0318,-0.0322,-0.0322,-0.0325,-0.0326,-0.0333,-0.0336,-0.0336,-0.0335,-0.0339,-0.034,-0.0341,-0.0342,-0.0348,-0.035,-0.0349,-0.0352,-0.0349,-0.0349,-0.0349,-0.0365,-0.0366,-0.0346,-0.0346,-0.0346,-0.0346,-0.0346,-0.0346,-0.0307,-0.0304,-0.0308,-0.0307,-0.031,-0.031,-0.0311,-0.0314,-0.0317,-0.0317,-0.0318,-0.0322,-0.0327,-0.0329,-0.0331,-0.0333,-0.0333,-0.0329,-0.0332,-0.0346,-0.0348,-0.035,-0.0351,-0.0329,-0.0329,-0.0316,-0.0316,-0.0316]}]]